Ft Lauderdale, FL

2:19 PM EDT on June 26, 2017 (GMT -0400)
Fort Lauderdale-Hollywood International

Weather History for KFLL - January, 2014

Change the Weather History Date:

Sunday, January 5, 2014

  Actual Average Record
Temperature  
Mean Temperature 76 °F 69 °F  
Max Temperature 81 °F 76 °F 87 °F (1924)
Min Temperature 71 °F 61 °F 36 °F (1953)
Degree Days  
Heating Degree Days 0 2  
Month to date heating degree days 0 10  
Since 1 July heating degree days 4 42  
Cooling Degree Days 11 6  
Month to date cooling degree days 39 30  
Year to date cooling degree days 39 30  
Growing Degree Days 26 (Base 50)    
Moisture  
Dew Point 68 °F    
Average Humidity 76    
Maximum Humidity 87    
Minimum Humidity 64    
Precipitation  
Precipitation 0.03 in 0.08 in 1.58 in (1942)
Month to date precipitation 0.10 0.42  
Year to date precipitation 0.10 0.42  
Snow  
Snow 0.00 in - - ()
Month to date snowfall 0.0  
Since 1 July snowfall 0.0  
Snow Depth 0.00 in    
Sea Level Pressure  
Sea Level Pressure 30.01 in    
Wind  
Wind Speed 10 mph (SSE)    
Max Wind Speed 25 mph    
Max Gust Speed 32 mph    
Visibility 10 miles    
Events Rain    
T = Trace of Precipitation, MM = Missing Value Source: NWS Daily Summary

Daily Weather History Graph

Daily Weather History Graph

Search for Another Location

Airport or City:

Trip Planner

Search our weather history database for the weather conditions in past years. The results will help you decide how hot, cold, wet, or windy it might be!

Date:

Astronomy

Jan. 05, 2014 Rise Set
Actual Time 7:08 AM EST 5:43 PM EST
Civil Twilight 6:43 AM EST 6:08 PM EST
Nautical Twilight 6:15 AM EST 6:37 PM EST
Astronomical Twilight 5:47 AM EST 7:05 PM EST
Moon 10:19 AM EST (1/5) 10:36 PM EST (1/5)
Length of Visible Light 11h 24m
Length of Day
10h 34m
Waxing Crescent, 24% of the Moon is Illuminated
Jan 5
Waxing Crescent
Jan 7
First Quarter
Jan 15
Full
Jan 24
Last Quarter
Jan 30
New

Hourly Weather History & Observations

Time (EST) Temp. Heat Index Dew Point Humidity Pressure Visibility Wind Dir Wind Speed Gust Speed Precip Events Conditions
12:53 AM 73.9 °F - 69.1 °F 85% 30.04 in 10.0 mi ESE 15.0 mph - N/A   Mostly Cloudy
1:53 AM 73.9 °F - 64.9 °F 73% 30.04 in 10.0 mi SE 9.2 mph - N/A   Scattered Clouds
2:53 AM 73.0 °F - 66.9 °F 81% 30.02 in 10.0 mi SSE 6.9 mph - N/A   Scattered Clouds
3:53 AM 72.0 °F - 64.9 °F 78% 30.00 in 10.0 mi SE 4.6 mph - N/A   Scattered Clouds
4:53 AM 73.9 °F - 68.0 °F 82% 29.98 in 10.0 mi SE 15.0 mph - N/A   Partly Cloudy
5:53 AM 73.9 °F - 69.1 °F 85% 29.96 in 10.0 mi SE 19.6 mph - N/A   Scattered Clouds
6:53 AM 75.0 °F - 70.0 °F 84% 29.99 in 10.0 mi SE 19.6 mph - N/A   Mostly Cloudy
7:09 AM 75.2 °F - 71.6 °F 89% 30.00 in 10.0 mi SE 13.8 mph 20.7 mph N/A   Mostly Cloudy
7:53 AM 75.9 °F - 71.1 °F 85% 30.02 in 10.0 mi SSE 11.5 mph - N/A   Overcast
8:53 AM 77.0 °F - 71.1 °F 82% 30.03 in 10.0 mi SSE 15.0 mph 20.7 mph N/A   Mostly Cloudy
9:53 AM 77.0 °F - 71.1 °F 82% 30.06 in 10.0 mi South 8.1 mph - N/A   Mostly Cloudy
10:53 AM 79.0 °F - 72.0 °F 79% 30.03 in 10.0 mi SSE 15.0 mph - 0.01 in   Mostly Cloudy
11:53 AM 79.0 °F - 70.0 °F 74% 30.01 in 10.0 mi South 11.5 mph - N/A   Overcast
12:53 PM 80.1 °F 83.2 °F 70.0 °F 71% 29.99 in 10.0 mi SSE 12.7 mph - N/A   Mostly Cloudy
1:53 PM 75.9 °F - 69.1 °F 79% 29.98 in 9.0 mi South 15.0 mph 27.6 mph 0.01 in Rain Light Rain
2:53 PM 79.0 °F - 70.0 °F 74% 29.97 in 10.0 mi SSE 8.1 mph - 0.00 in   Scattered Clouds
3:53 PM 75.9 °F - 68.0 °F 76% 29.99 in 10.0 mi South 10.4 mph - 0.01 in   Mostly Cloudy
4:53 PM 77.0 °F - 66.9 °F 71% 29.99 in 10.0 mi SSW 6.9 mph - N/A   Mostly Cloudy
5:53 PM 77.0 °F - 64.9 °F 66% 29.99 in 10.0 mi SW 6.9 mph - N/A   Mostly Cloudy
6:53 PM 75.9 °F - 64.9 °F 69% 30.01 in 10.0 mi SW 8.1 mph - N/A   Mostly Cloudy
7:53 PM 75.0 °F - 64.9 °F 71% 30.02 in 10.0 mi SSW 3.5 mph - N/A   Mostly Cloudy
8:53 PM 73.0 °F - 66.0 °F 79% 30.03 in 10.0 mi SSE 3.5 mph - N/A   Scattered Clouds
9:53 PM 73.0 °F - 66.9 °F 81% 30.03 in 10.0 mi Variable 4.6 mph - N/A   Clear
10:53 PM 71.1 °F - 66.9 °F 87% 30.02 in 10.0 mi SSE 4.6 mph - N/A   Clear
11:53 PM 71.1 °F - 68.0 °F 90% 30.01 in 10.0 mi SSW 3.5 mph - N/A   Clear